SCP
0 0 0 0 0 0 0 0 0 0 -0 0 0 0 -0 0 0 0 0 0 0 0 -0 -0 0 0 0 0 0 0 0 0 0 0 0 0 0 0 0 0 0 0 0 0
0 0 0 0 0 0 0 0 0 0 0 0 0 0 0 0 0 0 0 0 0 -0 -0 -0 -0 -0 -0 -0 -0 0 0 0 0 0 0 0 0 0 0 0 0 0 0 0
-0 0 0 0 0 0 0 0 0 0 0 -0 0 0 -0 -0 -0 -0 -0 0 0 0 -0 -0 -0 -0 -0 0 0 0 0 0 0 0 0 0 0 0 0 0 0 0 0 0
-0 -0 -0 -0 -0 0 0 0 0 0 0 0 0 -0 -0 -0 -0 0 0 0 0 0 0 0 0 0 0 0 0 0 0 0 0 0 0 0 0 0 0 0 0 0 0 0
-0 -0 -0 -0 -0 -0 -0 0 0 0 0 0 0 0 0 -0 0 0 0 0 0 0 0 0 0 0 0 0 0 0 0 0 0 0 0 0 0 0 0 0 0 0 0 0
-0 -0 -0 -0 -0 -0 0 0 -0 -0 0 0 0 0 -0 -0 0 0 0 0 0 0 0 0 0 0 0 0 0 0 0 0 0 0 0 0 0 0 0 0 0 0 0 0
-0 -0 -0 -0 -0 -0 0 0 -0 0 0 0 0 0 0 0 0 0 0 0 0 0 0 0 0 0 0 0 0 0 0 0 0 0 0 0 0 0 0 0 0 0 0 0
-0 -0 0 -0 -0 -0 -0 0 0 0 0 0 -0 0 0 0 -0 0 0 0 0 0 0 0 0 0 0 0 0 0 0 0 0 0 0 0 0 0 0 0 0 0 0 0
0 -0 0 0 0 0 0 0 0 0 0 0 0 0 0 -0 -0 -0 0 0 0 0 0 0 0 0 0 0 0 0 0 0 0 0 0 0 0 0 0 0 0 0 0 0
0 0 0 0 0 0 0 0 0 0 0 0 0 0 0 -0 -0 -0 0 0 0 0 0 0 0 0 0 0 0 0 0 0 0 0 0 0 0 0 0 0 0 0 0 0
0 0 0 0 0 0 0 0 0 0 0 0 0 -0 0 -0 -0 -0 -0 -0 0 0 0 0 0 0 0 0 0 0 0 0 0 0 0 0 0 0 0 0 0 0 0 0
0 0 0 0 0 0 0 0 0 0 0 0 0 0 0 -0 -0 -0 -0 -0 -0 -0 -0 -0 -0 0 0 0 0 0 0 0 0 0 0 0 0 0 0 0 0 0 0 0
0 0 0 0 0 0 0 0 0 0 0 0 0 0 0 -0 -0 -0 -0 -0 -0 -0 -0 -0 -0 -0 0 0 0 0 0 0 0 0 0 0 0 0 0 0 0 0 0 0
0 0 0 0 0 0 0 0 0 0 0 0 0 0 -0 0 -0 -0 -0 -0 -0 -0 -0 -0 -0 -0 0 0 0 0 0 0 0 0 0 0 0 0 0 0 0 0 0 0
0 0 0 0 0 0 0 0 0 0 0 0 0 0 0 -0 0 -0 -0 -0 -0 -0 -0 -0 -0 -0 -0 0 0 0 0 0 0 0 0 0 0 0 0 0 0 0 0 0
0 0 0 0 0 0 0 0 0 0 0 0 0 0 0 0 0 -0 -0 -0 -0 0 0 -0 -0 -0 -0 0 0 0 0 0 0 0 0 0 0 0 0 0 0 0 0 0
0 0 0 0 0 0 0 0 0 0 0 0 0 0 0 0 0 0 -0 -0 -0 0 0 0 0 -0 -0 -0 -0 0 0 0 0 0 0 0 0 0 0 0 0 0 0 0
0 0 0 0 0 0 0 0 0 0 0 0 0 0 0 0 0 0 0 0 -0 -0 -0 -0 -0 -0 -0 -0 -0 -0 -0 -0 -0 0 0 0 0 0 0 0 0 0 0 0
0 0 0 0 0 0 0 0 0 0 0 0 0 0 0 0 0 0 0 0 0 -0 -0 -0 -0 -0 -0 -0 -0 -0 -0 0 0 0 0 0 0 0 0 0 0 0 0 0
0 0 0 0 0 0 0 0 0 0 0 0 0 0 0 0 0 0 0 0 0 0 -0 -0 -0 -0 -0 -0 -0 -0 -0 -0 0 0 0 0 0 0 0 0 0 0 0 0
0 0 0 0 0 0 0 0 0 0 0 0 0 0 0 0 0 0 0 0 0 0 0 -0 -0 0 -0 -0 -0 -0 -0 -0 -0 -0 0 0 0 0 0 0 0 0 0 0
0 0 0 0 0 0 0 0 0 0 0 0 0 0 0 0 0 0 0 0 0 0 0 0 0 0 0 0 -0 -0 -0 -0 -0 -0 -0 -0 0 0 0 0 0 0 0 0
0 0 0 0 0 0 0 0 0 0 0 0 0 0 0 0 0 0 0 0 0 0 0 0 0 0 0 -0 -0 -0 -0 -0 -0 -0 -0 -0 -0 -0 -0 0 0 0 -0 0
0 0 0 0 0 0 0 0 0 0 0 0 0 0 0 0 0 0 0 0 0 0 0 0 0 0 0 0 0 -0 -0 -0 -0 -0 -0 -0 -0 -0 -0 -0 -0 -0 -0 -0
0 0 0 0 0 0 0 0 0 0 0 0 0 0 0 0 0 0 0 0 0 0 0 0 0 0 0 0 0 0 -0 -0 -0 -0 -0 -0 -0 -0 -0 -0 -0 -0 -0 -0
0 0 0 0 0 0 0 0 0 0 0 0 0 0 0 0 0 0 0 0 0 0 0 0 0 0 0 0 0 0 0 -0 -0 -0 -0 -0 -0 -0 -0 -0 -0 -0 -0 -0
Wind_Speed_500mb
22 24 18 20 13 11 15 26 37 49 31 45 40 56 77 60 66 67 76 73 87 81 78 78 85 83 81 80 79 72 69 67 75 93 92 97 118 114 106 101 98 94 90 99
11 24 22 19 11 28 25 36 35 37 38 44 43 60 67 57 44 55 61 69 69 83 89 71 63 67 73 76 70 69 76 77 77 85 99 102 103 110 113 109 105 100 92 91
16 9 34 28 18 40 30 25 26 42 52 29 46 54 56 54 53 70 71 72 71 52 39 44 44 50 56 59 62 66 70 75 85 88 94 99 85 90 95 104 109 104 95 94
10 22 24 27 21 36 36 23 38 48 34 23 20 31 56 43 50 37 52 59 32 33 34 32 32 32 38 42 44 54 64 72 78 86 98 102 99 99 110 110 107 106 98 94
12 11 18 21 27 39 25 39 42 50 45 37 8 18 20 26 34 45 42 41 56 56 53 49 42 36 33 38 42 40 45 58 69 81 95 104 106 109 105 105 102 103 101 90
7 20 5 4 20 30 31 29 41 37 9 8 27 19 12 18 25 37 43 61 64 70 68 57 49 43 41 40 40 39 34 36 52 67 86 102 105 104 104 103 97 91 94 92
12 6 9 8 24 18 40 29 10 12 9 10 17 22 14 24 28 35 35 57 61 64 69 75 72 65 56 51 48 47 40 24 28 56 71 93 100 100 104 106 100 90 89 94
10 12 8 17 18 11 19 14 4 13 14 29 35 7 10 20 26 36 42 48 56 68 71 76 76 67 62 55 50 48 45 34 11 33 52 64 87 91 94 96 93 89 86 86
9 10 8 10 16 6 12 13 20 10 18 11 8 11 10 34 32 38 47 56 59 66 72 74 78 71 66 61 53 52 48 42 27 6 27 45 56 72 77 82 83 80 78 75
4 12 9 11 4 10 8 10 7 7 11 13 12 14 14 40 44 38 37 47 54 58 68 75 80 77 70 64 53 44 45 47 41 22 5 23 37 42 52 61 67 67 67 65
5 7 9 7 2 4 5 7 7 5 6 8 13 9 17 25 28 33 32 46 54 57 63 63 75 77 75 70 63 53 46 46 44 38 20 3 17 28 36 41 47 50 53 55
8 7 9 11 14 11 9 8 8 5 12 11 18 17 12 22 25 30 39 44 44 49 57 61 66 73 81 84 81 70 56 49 47 42 34 21 5 11 25 33 38 42 45 44
5 4 9 19 12 9 2 7 13 9 14 19 15 14 29 43 28 35 34 41 40 44 50 59 62 68 77 83 86 84 74 62 50 43 36 32 26 13 3 16 27 35 37 41
17 5 15 15 18 4 8 8 23 8 6 17 25 39 14 20 25 34 45 46 42 42 44 53 62 64 64 69 77 81 81 77 69 58 46 39 35 29 22 9 10 23 33 37
9 10 11 24 36 32 42 38 29 25 29 21 23 29 21 11 18 23 39 39 36 37 43 50 53 57 59 61 65 67 70 76 79 77 71 61 46 35 27 21 11 4 17 33
2 8 4 15 33 31 35 39 28 34 35 35 30 29 11 20 22 27 31 29 34 35 36 40 44 49 54 55 56 59 61 62 66 73 78 76 72 56 41 32 25 15 5 12
8 6 3 12 12 17 16 21 18 12 12 14 22 19 6 14 16 23 30 32 28 30 34 35 36 40 49 53 53 57 61 61 58 59 65 70 70 73 69 56 40 29 22 12
9 9 3 9 9 5 13 8 11 25 18 21 20 16 18 27 37 36 33 32 36 33 33 35 37 36 36 40 43 42 46 53 59 64 64 62 63 64 62 63 64 58 43 30
36 10 4 4 6 17 21 7 13 15 22 21 31 18 30 32 25 35 20 24 29 39 38 37 33 35 35 35 37 39 41 44 48 53 55 57 58 59 61 63 62 60 58 49
26 18 8 6 7 13 13 7 5 7 16 12 27 14 18 10 3 10 24 25 32 34 35 37 36 35 34 38 40 39 41 45 48 52 54 53 50 45 48 52 57 59 53 49
9 3 30 14 9 17 24 23 6 9 16 14 44 32 31 12 29 45 32 36 36 34 32 36 37 39 43 41 40 43 46 45 45 45 46 46 45 47 45 44 41 42 46 51
17 14 9 6 6 22 22 14 17 21 15 42 38 32 44 52 55 56 49 41 36 35 33 35 37 40 40 43 45 44 47 51 54 53 51 51 51 47 47 44 41 40 39 36
7 17 9 21 17 12 34 16 29 39 43 43 45 56 63 61 60 57 54 45 38 37 39 40 40 43 45 45 47 52 52 54 56 62 66 67 61 56 51 47 46 44 42 42
12 18 8 3 18 41 55 67 65 67 67 71 74 68 54 55 57 56 51 45 38 37 39 43 44 45 46 49 54 56 60 65 68 68 67 67 71 71 63 58 51 47 45 45
16 15 10 25 46 53 73 77 79 62 54 54 60 61 58 53 57 55 49 40 35 35 40 44 47 50 52 53 56 61 64 70 76 76 76 74 72 72 76 70 63 58 50 45
39 34 26 29 59 33 52 44 43 56 66 71 69 61 58 61 60 49 41 35 35 38 41 43 46 51 55 60 63 65 68 71 73 77 79 76 73 71 69 72 78 66 59 54
Wind_Direction_500mb
34 61 20 330 314 333 316 307 297 301 309 302 276 274 281 283 279 280 281 285 291 290 296 301 301 302 300 293 288 274 265 256 248 244 231 228 236 238 240 242 244 241 233 234
53 47 353 333 1 2 346 321 313 299 342 320 305 284 284 283 283 289 286 283 283 292 296 298 295 293 291 289 289 286 276 265 257 250 245 235 234 239 242 241 241 242 237 231
70 16 348 8 351 349 339 309 309 302 310 275 270 269 279 281 264 262 263 266 276 289 305 315 307 301 294 286 279 273 265 264 264 258 246 235 227 226 229 233 239 240 239 233
56 331 354 349 11 346 325 314 315 305 310 301 49 294 296 289 286 282 282 281 304 345 340 340 335 322 326 321 309 285 271 254 252 252 245 236 220 220 230 239 242 241 241 237
308 303 351 9 351 332 296 307 293 285 276 293 296 258 296 298 304 355 353 6 17 11 5 360 358 353 348 342 340 323 291 262 243 244 245 239 233 232 239 238 239 238 239 237
294 306 29 285 327 311 313 306 283 271 246 229 270 237 53 27 354 8 15 14 7 3 0 358 356 354 352 354 352 346 321 287 247 231 242 238 237 233 232 236 238 240 239 234
329 268 314 313 322 299 347 358 345 6 359 291 327 341 50 26 21 16 7 2 1 0 359 1 360 357 354 356 359 359 355 330 248 227 231 236 237 237 239 241 240 238 237 233
5 343 16 337 347 305 346 9 327 319 326 295 304 247 52 39 31 23 13 2 360 359 360 1 3 360 358 358 359 3 6 3 324 225 223 225 233 236 238 240 242 242 242 239
13 273 323 305 333 26 328 7 299 272 279 258 290 342 328 13 18 19 8 359 357 358 358 359 1 7 5 3 7 6 8 15 14 292 225 226 231 233 238 244 246 248 248 245
239 293 251 316 12 24 119 298 359 355 320 303 309 313 1 7 0 2 4 353 349 356 360 1 7 10 14 11 8 11 19 21 25 29 223 222 225 233 245 250 250 252 251 248
148 144 278 15 71 307 341 3 346 267 260 294 318 278 37 19 1 356 349 347 348 353 0 360 8 17 20 22 21 19 20 23 29 34 42 167 217 220 227 235 248 255 255 255
211 194 279 263 282 206 192 183 167 113 294 279 269 272 116 36 23 356 342 348 349 352 0 11 21 17 25 28 28 28 25 26 29 31 37 45 57 214 223 228 232 237 249 260
235 284 327 332 357 22 123 268 272 285 256 252 257 279 327 350 349 345 343 346 347 350 353 5 14 22 25 29 32 33 34 32 29 27 35 44 50 54 234 233 236 239 240 248
226 158 179 222 241 165 275 237 278 197 226 270 267 292 348 334 331 332 335 340 350 354 353 5 13 17 17 24 29 34 38 39 40 36 34 37 41 41 42 27 257 244 242 242
144 232 202 248 263 268 269 266 258 241 252 251 283 298 290 300 311 308 320 334 344 350 356 6 7 12 15 20 24 28 35 39 40 42 43 41 35 34 37 38 29 300 245 242
332 267 101 281 267 259 270 267 246 247 262 258 266 277 207 312 304 287 311 325 337 344 355 3 5 9 13 16 21 23 29 33 38 40 41 43 43 39 33 29 30 24 348 254
199 191 74 266 340 316 301 242 215 203 207 206 251 252 278 297 284 296 290 317 326 336 342 350 357 4 10 11 15 17 22 26 29 37 39 37 38 40 40 38 34 27 24 15
184 139 165 268 2 341 246 263 181 211 234 237 249 250 257 264 285 302 286 294 315 323 329 336 341 348 360 5 7 12 15 21 21 24 28 30 32 32 33 37 39 39 32 20
197 152 283 241 199 299 287 257 190 174 264 230 232 231 257 276 286 289 290 257 299 312 319 324 331 336 342 352 0 2 2 7 13 24 23 22 20 20 23 24 27 31 35 35
188 198 174 84 179 241 238 265 146 140 290 241 194 205 240 252 297 258 288 270 292 297 305 314 320 327 330 338 345 349 351 356 359 7 9 9 10 15 19 18 17 14 20 27
138 218 220 210 252 277 246 226 88 89 246 198 189 217 247 210 257 286 283 284 290 289 294 303 309 314 320 325 329 335 340 342 346 349 352 352 352 360 6 9 8 7 8 5
173 179 195 98 174 272 203 111 184 215 237 205 204 258 279 281 290 280 274 272 280 283 286 291 295 301 305 309 314 320 326 329 332 333 335 336 343 347 346 348 351 355 358 358
257 202 185 187 212 241 196 232 246 262 268 255 266 297 302 297 287 285 269 266 270 279 284 286 288 292 298 303 305 311 316 318 319 323 326 328 330 330 332 334 336 338 341 344
252 183 225 141 245 249 260 263 272 278 281 285 288 292 291 290 294 287 271 262 264 270 275 280 284 286 290 296 302 307 310 313 313 313 314 316 318 319 320 321 324 324 326 327
204 145 217 258 264 272 268 266 272 280 282 282 289 288 287 290 290 283 270 261 266 270 272 276 279 285 291 295 299 303 307 307 307 307 308 308 307 308 311 312 313 314 314 314
235 242 239 254 255 257 272 274 284 288 288 290 289 285 286 289 287 274 262 263 271 274 274 275 277 283 288 293 296 299 302 303 303 302 303 303 303 303 302 302 304 302 302 302
Wind_Speed_850mb
22 24 18 20 13 11 15 26 37 49 31 45 40 56 77 60 66 67 76 73 87 81 78 78 85 83 81 80 79 72 69 67 75 93 92 97 118 114 106 101 98 94 90 99
11 24 22 19 11 28 25 36 35 37 38 44 43 60 67 57 44 55 61 69 69 83 89 71 63 67 73 76 70 69 76 77 77 85 99 102 103 110 113 109 105 100 92 91
16 9 34 28 18 40 30 25 26 42 52 29 46 54 56 54 53 70 71 72 71 52 39 44 44 50 56 59 62 66 70 75 85 88 94 99 85 90 95 104 109 104 95 94
10 22 24 27 21 36 36 23 38 48 34 23 20 31 56 43 50 37 52 59 32 33 34 32 32 32 38 42 44 54 64 72 78 86 98 102 99 99 110 110 107 106 98 94
12 11 18 21 27 39 25 39 42 50 45 37 8 18 20 26 34 45 42 41 56 56 53 49 42 36 33 38 42 40 45 58 69 81 95 104 106 109 105 105 102 103 101 90
7 20 5 4 20 30 31 29 41 37 9 8 27 19 12 18 25 37 43 61 64 70 68 57 49 43 41 40 40 39 34 36 52 67 86 102 105 104 104 103 97 91 94 92
12 6 9 8 24 18 40 29 10 12 9 10 17 22 14 24 28 35 35 57 61 64 69 75 72 65 56 51 48 47 40 24 28 56 71 93 100 100 104 106 100 90 89 94
10 12 8 17 18 11 19 14 4 13 14 29 35 7 10 20 26 36 42 48 56 68 71 76 76 67 62 55 50 48 45 34 11 33 52 64 87 91 94 96 93 89 86 86
9 10 8 10 16 6 12 13 20 10 18 11 8 11 10 34 32 38 47 56 59 66 72 74 78 71 66 61 53 52 48 42 27 6 27 45 56 72 77 82 83 80 78 75
4 12 9 11 4 10 8 10 7 7 11 13 12 14 14 40 44 38 37 47 54 58 68 75 80 77 70 64 53 44 45 47 41 22 5 23 37 42 52 61 67 67 67 65
5 7 9 7 2 4 5 7 7 5 6 8 13 9 17 25 28 33 32 46 54 57 63 63 75 77 75 70 63 53 46 46 44 38 20 3 17 28 36 41 47 50 53 55
8 7 9 11 14 11 9 8 8 5 12 11 18 17 12 22 25 30 39 44 44 49 57 61 66 73 81 84 81 70 56 49 47 42 34 21 5 11 25 33 38 42 45 44
5 4 9 19 12 9 2 7 13 9 14 19 15 14 29 43 28 35 34 41 40 44 50 59 62 68 77 83 86 84 74 62 50 43 36 32 26 13 3 16 27 35 37 41
17 5 15 15 18 4 8 8 23 8 6 17 25 39 14 20 25 34 45 46 42 42 44 53 62 64 64 69 77 81 81 77 69 58 46 39 35 29 22 9 10 23 33 37
9 10 11 24 36 32 42 38 29 25 29 21 23 29 21 11 18 23 39 39 36 37 43 50 53 57 59 61 65 67 70 76 79 77 71 61 46 35 27 21 11 4 17 33
2 8 4 15 33 31 35 39 28 34 35 35 30 29 11 20 22 27 31 29 34 35 36 40 44 49 54 55 56 59 61 62 66 73 78 76 72 56 41 32 25 15 5 12
8 6 3 12 12 17 16 21 18 12 12 14 22 19 6 14 16 23 30 32 28 30 34 35 36 40 49 53 53 57 61 61 58 59 65 70 70 73 69 56 40 29 22 12
9 9 3 9 9 5 13 8 11 25 18 21 20 16 18 27 37 36 33 32 36 33 33 35 37 36 36 40 43 42 46 53 59 64 64 62 63 64 62 63 64 58 43 30
36 10 4 4 6 17 21 7 13 15 22 21 31 18 30 32 25 35 20 24 29 39 38 37 33 35 35 35 37 39 41 44 48 53 55 57 58 59 61 63 62 60 58 49
26 18 8 6 7 13 13 7 5 7 16 12 27 14 18 10 3 10 24 25 32 34 35 37 36 35 34 38 40 39 41 45 48 52 54 53 50 45 48 52 57 59 53 49
9 3 30 14 9 17 24 23 6 9 16 14 44 32 31 12 29 45 32 36 36 34 32 36 37 39 43 41 40 43 46 45 45 45 46 46 45 47 45 44 41 42 46 51
17 14 9 6 6 22 22 14 17 21 15 42 38 32 44 52 55 56 49 41 36 35 33 35 37 40 40 43 45 44 47 51 54 53 51 51 51 47 47 44 41 40 39 36
7 17 9 21 17 12 34 16 29 39 43 43 45 56 63 61 60 57 54 45 38 37 39 40 40 43 45 45 47 52 52 54 56 62 66 67 61 56 51 47 46 44 42 42
12 18 8 3 18 41 55 67 65 67 67 71 74 68 54 55 57 56 51 45 38 37 39 43 44 45 46 49 54 56 60 65 68 68 67 67 71 71 63 58 51 47 45 45
16 15 10 25 46 53 73 77 79 62 54 54 60 61 58 53 57 55 49 40 35 35 40 44 47 50 52 53 56 61 64 70 76 76 76 74 72 72 76 70 63 58 50 45
39 34 26 29 59 33 52 44 43 56 66 71 69 61 58 61 60 49 41 35 35 38 41 43 46 51 55 60 63 65 68 71 73 77 79 76 73 71 69 72 78 66 59 54
Wind_Direction_850mb
34 61 20 330 314 333 316 307 297 301 309 302 276 274 281 283 279 280 281 285 291 290 296 301 301 302 300 293 288 274 265 256 248 244 231 228 236 238 240 242 244 241 233 234
53 47 353 333 1 2 346 321 313 299 342 320 305 284 284 283 283 289 286 283 283 292 296 298 295 293 291 289 289 286 276 265 257 250 245 235 234 239 242 241 241 242 237 231
70 16 348 8 351 349 339 309 309 302 310 275 270 269 279 281 264 262 263 266 276 289 305 315 307 301 294 286 279 273 265 264 264 258 246 235 227 226 229 233 239 240 239 233
56 331 354 349 11 346 325 314 315 305 310 301 49 294 296 289 286 282 282 281 304 345 340 340 335 322 326 321 309 285 271 254 252 252 245 236 220 220 230 239 242 241 241 237
308 303 351 9 351 332 296 307 293 285 276 293 296 258 296 298 304 355 353 6 17 11 5 360 358 353 348 342 340 323 291 262 243 244 245 239 233 232 239 238 239 238 239 237
294 306 29 285 327 311 313 306 283 271 246 229 270 237 53 27 354 8 15 14 7 3 0 358 356 354 352 354 352 346 321 287 247 231 242 238 237 233 232 236 238 240 239 234
329 268 314 313 322 299 347 358 345 6 359 291 327 341 50 26 21 16 7 2 1 0 359 1 360 357 354 356 359 359 355 330 248 227 231 236 237 237 239 241 240 238 237 233
5 343 16 337 347 305 346 9 327 319 326 295 304 247 52 39 31 23 13 2 360 359 360 1 3 360 358 358 359 3 6 3 324 225 223 225 233 236 238 240 242 242 242 239
13 273 323 305 333 26 328 7 299 272 279 258 290 342 328 13 18 19 8 359 357 358 358 359 1 7 5 3 7 6 8 15 14 292 225 226 231 233 238 244 246 248 248 245
239 293 251 316 12 24 119 298 359 355 320 303 309 313 1 7 0 2 4 353 349 356 360 1 7 10 14 11 8 11 19 21 25 29 223 222 225 233 245 250 250 252 251 248
148 144 278 15 71 307 341 3 346 267 260 294 318 278 37 19 1 356 349 347 348 353 0 360 8 17 20 22 21 19 20 23 29 34 42 167 217 220 227 235 248 255 255 255
211 194 279 263 282 206 192 183 167 113 294 279 269 272 116 36 23 356 342 348 349 352 0 11 21 17 25 28 28 28 25 26 29 31 37 45 57 214 223 228 232 237 249 260
235 284 327 332 357 22 123 268 272 285 256 252 257 279 327 350 349 345 343 346 347 350 353 5 14 22 25 29 32 33 34 32 29 27 35 44 50 54 234 233 236 239 240 248
226 158 179 222 241 165 275 237 278 197 226 270 267 292 348 334 331 332 335 340 350 354 353 5 13 17 17 24 29 34 38 39 40 36 34 37 41 41 42 27 257 244 242 242
144 232 202 248 263 268 269 266 258 241 252 251 283 298 290 300 311 308 320 334 344 350 356 6 7 12 15 20 24 28 35 39 40 42 43 41 35 34 37 38 29 300 245 242
332 267 101 281 267 259 270 267 246 247 262 258 266 277 207 312 304 287 311 325 337 344 355 3 5 9 13 16 21 23 29 33 38 40 41 43 43 39 33 29 30 24 348 254
199 191 74 266 340 316 301 242 215 203 207 206 251 252 278 297 284 296 290 317 326 336 342 350 357 4 10 11 15 17 22 26 29 37 39 37 38 40 40 38 34 27 24 15
184 139 165 268 2 341 246 263 181 211 234 237 249 250 257 264 285 302 286 294 315 323 329 336 341 348 360 5 7 12 15 21 21 24 28 30 32 32 33 37 39 39 32 20
197 152 283 241 199 299 287 257 190 174 264 230 232 231 257 276 286 289 290 257 299 312 319 324 331 336 342 352 0 2 2 7 13 24 23 22 20 20 23 24 27 31 35 35
188 198 174 84 179 241 238 265 146 140 290 241 194 205 240 252 297 258 288 270 292 297 305 314 320 327 330 338 345 349 351 356 359 7 9 9 10 15 19 18 17 14 20 27
138 218 220 210 252 277 246 226 88 89 246 198 189 217 247 210 257 286 283 284 290 289 294 303 309 314 320 325 329 335 340 342 346 349 352 352 352 360 6 9 8 7 8 5
173 179 195 98 174 272 203 111 184 215 237 205 204 258 279 281 290 280 274 272 280 283 286 291 295 301 305 309 314 320 326 329 332 333 335 336 343 347 346 348 351 355 358 358
257 202 185 187 212 241 196 232 246 262 268 255 266 297 302 297 287 285 269 266 270 279 284 286 288 292 298 303 305 311 316 318 319 323 326 328 330 330 332 334 336 338 341 344
252 183 225 141 245 249 260 263 272 278 281 285 288 292 291 290 294 287 271 262 264 270 275 280 284 286 290 296 302 307 310 313 313 313 314 316 318 319 320 321 324 324 326 327
204 145 217 258 264 272 268 266 272 280 282 282 289 288 287 290 290 283 270 261 266 270 272 276 279 285 291 295 299 303 307 307 307 307 308 308 307 308 311 312 313 314 314 314
235 242 239 254 255 257 272 274 284 288 288 290 289 285 286 289 287 274 262 263 271 274 274 275 277 283 288 293 296 299 302 303 303 302 303 303 303 303 302 302 304 302 302 302